{"data":{"norad_id":63652,"epoch":"2026-09-20T05:51:05.388768Z","epoch_age_seconds":174970,"freshness":"STALE","line1":"1 63652U 25083U   26263.24381237  .00017399  00000+0  64003-3 0  9993","line2":"2 63652  43.0030 346.2670 0001519 274.6567  85.4111 15.27593197 79820","mean_motion":15.27593197,"eccentricity":0.0001519,"inclination_deg":43.003,"raan_deg":346.267,"arg_perigee_deg":274.6567,"mean_anomaly_deg":85.4111,"bstar":0.00064003,"rev_number":7982,"period_min":94.265934335658,"perigee_km":481.96737159308,"apogee_km":484.05178792401,"semimajor_km":6861.1465797585,"source":"CELESTRAK","updated_at":"2026-09-21T09:00:35.054511Z"}}